Year,Month,Day,Hour,Minute,Value (Times are PST for temperature in C)
2010,07,19,00,00,14.00
2010,07,19,00,01,14.00
2010,07,19,00,02,14.00
2010,07,19,00,03,13.90
2010,07,19,00,04,13.90
2010,07,19,00,05,13.90
2010,07,19,00,06,13.90
2010,07,19,00,07,13.90
2010,07,19,00,08,13.90
2010,07,19,00,09,13.90
2010,07,19,00,10,13.90
2010,07,19,00,11,13.90
2010,07,19,00,12,13.90
2010,07,19,00,13,13.80
2010,07,19,00,14,13.80
2010,07,19,00,15,13.80
2010,07,19,00,16,13.80
2010,07,19,00,17,13.80
2010,07,19,00,18,13.80
2010,07,19,00,19,13.80
2010,07,19,00,20,13.70
2010,07,19,00,21,13.70
2010,07,19,00,22,13.70
2010,07,19,00,23,13.70
2010,07,19,00,24,13.60
2010,07,19,00,25,13.60
2010,07,19,00,26,13.60
2010,07,19,00,27,13.50
2010,07,19,00,28,13.50
2010,07,19,00,29,13.50
2010,07,19,00,30,13.40
2010,07,19,00,31,13.40
2010,07,19,00,32,13.40
2010,07,19,00,33,13.40
2010,07,19,00,34,13.30
2010,07,19,00,35,13.30
2010,07,19,00,36,13.30
2010,07,19,00,37,13.30
2010,07,19,00,38,13.30
2010,07,19,00,39,13.30
2010,07,19,00,40,13.30
2010,07,19,00,41,13.20
2010,07,19,00,42,13.20
2010,07,19,00,43,13.20
2010,07,19,00,44,13.20
2010,07,19,00,45,13.20
2010,07,19,00,46,13.20
2010,07,19,00,47,13.20
2010,07,19,00,48,13.20
2010,07,19,00,49,13.10
2010,07,19,00,50,13.10
2010,07,19,00,51,13.10
2010,07,19,00,52,13.00
2010,07,19,00,53,13.00
2010,07,19,00,54,13.00
2010,07,19,00,55,12.90
2010,07,19,00,56,12.90
2010,07,19,00,57,12.90
2010,07,19,00,58,12.80
2010,07,19,00,59,12.80
2010,07,19,01,00,12.80
2010,07,19,01,01,12.80
2010,07,19,01,02,12.80
2010,07,19,01,03,12.70
2010,07,19,01,04,12.70
2010,07,19,01,05,12.70
2010,07,19,01,06,12.60
2010,07,19,01,07,12.60
2010,07,19,01,08,12.60
2010,07,19,01,09,12.60
2010,07,19,01,10,12.50
2010,07,19,01,11,12.50
2010,07,19,01,12,12.50
2010,07,19,01,13,12.50
2010,07,19,01,14,12.40
2010,07,19,01,15,12.40
2010,07,19,01,16,12.40
2010,07,19,01,17,12.40
2010,07,19,01,18,12.40
2010,07,19,01,19,12.30
2010,07,19,01,20,12.30
2010,07,19,01,21,12.30
2010,07,19,01,22,12.30
2010,07,19,01,23,12.20
2010,07,19,01,24,12.20
2010,07,19,01,25,12.20
2010,07,19,01,26,12.20
2010,07,19,01,27,12.10
2010,07,19,01,28,12.10
2010,07,19,01,29,12.10
2010,07,19,01,30,12.10
2010,07,19,01,31,12.10
2010,07,19,01,32,12.00
2010,07,19,01,33,12.00
2010,07,19,01,34,12.00
2010,07,19,01,35,11.90
2010,07,19,01,36,11.90
2010,07,19,01,37,11.90
2010,07,19,01,38,11.90
2010,07,19,01,39,11.90
2010,07,19,01,40,11.80
2010,07,19,01,41,11.80
2010,07,19,01,42,11.80
2010,07,19,01,43,11.80
2010,07,19,01,44,11.80
2010,07,19,01,45,11.80
2010,07,19,01,46,11.80
2010,07,19,01,47,11.70
2010,07,19,01,48,11.70
2010,07,19,01,49,11.70
2010,07,19,01,50,11.70
2010,07,19,01,51,11.70
2010,07,19,01,52,11.60
2010,07,19,01,53,11.60
2010,07,19,01,54,11.60
2010,07,19,01,55,11.60
2010,07,19,01,56,11.60
2010,07,19,01,57,11.50
2010,07,19,01,58,11.50
2010,07,19,01,59,11.50
2010,07,19,02,00,11.50
2010,07,19,02,01,11.50
2010,07,19,02,02,11.50
2010,07,19,02,03,11.50
2010,07,19,02,04,11.40
2010,07,19,02,05,11.40
2010,07,19,02,06,11.40
2010,07,19,02,07,11.40
2010,07,19,02,08,11.40
2010,07,19,02,09,11.30
2010,07,19,02,10,11.30
2010,07,19,02,11,11.30
2010,07,19,02,12,11.30
2010,07,19,02,13,11.30
2010,07,19,02,14,11.30
2010,07,19,02,15,11.30
2010,07,19,02,16,11.20
2010,07,19,02,17,11.20
2010,07,19,02,18,11.20
2010,07,19,02,19,11.20
2010,07,19,02,20,11.20
2010,07,19,02,21,11.20
2010,07,19,02,22,11.20
2010,07,19,02,23,11.20
2010,07,19,02,24,11.20
2010,07,19,02,25,11.20
2010,07,19,02,26,11.20
2010,07,19,02,27,11.20
2010,07,19,02,28,11.20
2010,07,19,02,29,11.20
2010,07,19,02,30,11.10
2010,07,19,02,31,11.10
2010,07,19,02,32,11.10
2010,07,19,02,33,11.10
2010,07,19,02,34,11.10
2010,07,19,02,35,11.10
2010,07,19,02,36,11.10
2010,07,19,02,37,11.10
2010,07,19,02,38,11.10
2010,07,19,02,39,11.10
2010,07,19,02,40,11.00
2010,07,19,02,41,11.00
2010,07,19,02,42,11.00
2010,07,19,02,43,11.00
2010,07,19,02,44,11.00
2010,07,19,02,45,11.00
2010,07,19,02,46,10.90
2010,07,19,02,47,10.90
2010,07,19,02,48,10.90
2010,07,19,02,49,10.90
2010,07,19,02,50,10.90
2010,07,19,02,51,10.90
2010,07,19,02,52,10.90
2010,07,19,02,53,10.90
2010,07,19,02,54,10.80
2010,07,19,02,55,10.80
2010,07,19,02,56,10.80
2010,07,19,02,57,10.80
2010,07,19,02,58,10.80
2010,07,19,02,59,10.80
2010,07,19,03,00,10.80
2010,07,19,03,01,10.70
2010,07,19,03,02,10.70
2010,07,19,03,03,10.70
2010,07,19,03,04,10.70
2010,07,19,03,05,10.70
2010,07,19,03,06,10.70
2010,07,19,03,07,10.70
2010,07,19,03,08,10.70
2010,07,19,03,09,10.70
2010,07,19,03,10,10.70
2010,07,19,03,11,10.70
2010,07,19,03,12,10.70
2010,07,19,03,13,10.70
2010,07,19,03,14,10.60
2010,07,19,03,15,10.60
2010,07,19,03,16,10.70
2010,07,19,03,17,10.60
2010,07,19,03,18,10.60
2010,07,19,03,19,10.60
2010,07,19,03,20,10.60
2010,07,19,03,21,10.60
2010,07,19,03,22,10.60
2010,07,19,03,23,10.60
2010,07,19,03,24,10.60
2010,07,19,03,25,10.50
2010,07,19,03,26,10.60
2010,07,19,03,27,10.50
2010,07,19,03,28,10.50
2010,07,19,03,29,10.50
2010,07,19,03,30,10.50
2010,07,19,03,31,10.60
2010,07,19,03,32,10.60
2010,07,19,03,33,10.60
2010,07,19,03,34,10.60
2010,07,19,03,35,10.50
2010,07,19,03,36,10.50
2010,07,19,03,37,10.50
2010,07,19,03,38,10.50
2010,07,19,03,39,10.50
2010,07,19,03,40,10.50
2010,07,19,03,41,10.50
2010,07,19,03,42,10.50
2010,07,19,03,43,10.50
2010,07,19,03,44,10.50
2010,07,19,03,45,10.40
2010,07,19,03,46,10.40
2010,07,19,03,47,10.40
2010,07,19,03,48,10.40
2010,07,19,03,49,10.40
2010,07,19,03,50,10.40
2010,07,19,03,51,10.40
2010,07,19,03,52,10.30
2010,07,19,03,53,10.30
2010,07,19,03,54,10.30
2010,07,19,03,55,10.30
2010,07,19,03,56,10.30
2010,07,19,03,57,10.30
2010,07,19,03,58,10.30
2010,07,19,03,59,10.30
2010,07,19,04,00,10.30
2010,07,19,04,01,10.30
2010,07,19,04,02,10.20
2010,07,19,04,03,10.20
2010,07,19,04,04,10.20
2010,07,19,04,05,10.20
2010,07,19,04,06,10.20
2010,07,19,04,07,10.20
2010,07,19,04,08,10.20
2010,07,19,04,09,10.20
2010,07,19,04,10,10.20
2010,07,19,04,11,10.20
2010,07,19,04,12,10.20
2010,07,19,04,13,10.20
2010,07,19,04,14,10.10
2010,07,19,04,15,10.10
2010,07,19,04,16,10.10
2010,07,19,04,17,10.10
2010,07,19,04,18,10.10
2010,07,19,04,19,10.10
2010,07,19,04,20,10.10
2010,07,19,04,21,10.10
2010,07,19,04,22,10.10
2010,07,19,04,23,10.10
2010,07,19,04,24,10.10
2010,07,19,04,25,10.10
2010,07,19,04,26,10.10
2010,07,19,04,27,10.10
2010,07,19,04,28,10.10
2010,07,19,04,29,10.10
2010,07,19,04,30,10.10
2010,07,19,04,31,10.10
2010,07,19,04,32,10.10
2010,07,19,04,33,10.10
2010,07,19,04,34,10.10
2010,07,19,04,35,10.10
2010,07,19,04,36,10.10
2010,07,19,04,37,10.10
2010,07,19,04,38,10.10
2010,07,19,04,39,10.10
2010,07,19,04,40,10.10
2010,07,19,04,41,10.10
2010,07,19,04,42,10.10
2010,07,19,04,43,10.10
2010,07,19,04,44,10.10
2010,07,19,04,45,10.10
2010,07,19,04,46,10.10
2010,07,19,04,47,10.10
2010,07,19,04,48,10.10
2010,07,19,04,49,10.10
2010,07,19,04,50,10.10
2010,07,19,04,51,10.10
2010,07,19,04,52,10.10
2010,07,19,04,53,10.10
2010,07,19,04,54,10.10
2010,07,19,04,55,10.10
2010,07,19,04,56,10.10
2010,07,19,04,57,10.10
2010,07,19,04,58,10.10
2010,07,19,04,59,10.10
2010,07,19,05,00,10.10
2010,07,19,05,01,10.10
2010,07,19,05,02,10.10
2010,07,19,05,03,10.10
2010,07,19,05,04,10.10
2010,07,19,05,05,10.10
2010,07,19,05,06,10.10
2010,07,19,05,07,10.10
2010,07,19,05,08,10.10
2010,07,19,05,09,10.10
2010,07,19,05,10,10.10
2010,07,19,05,11,10.00
2010,07,19,05,12,10.00
2010,07,19,05,13,10.00
2010,07,19,05,14,10.00
2010,07,19,05,15,10.00
2010,07,19,05,16,10.00
2010,07,19,05,17,9.90
2010,07,19,05,18,9.90
2010,07,19,05,19,9.90
2010,07,19,05,20,9.90
2010,07,19,05,21,9.90
2010,07,19,05,22,9.90
2010,07,19,05,23,9.90
2010,07,19,05,24,9.90
2010,07,19,05,25,9.90
2010,07,19,05,26,9.90
2010,07,19,05,27,9.90
2010,07,19,05,28,9.90
2010,07,19,05,29,9.90
2010,07,19,05,30,9.90
2010,07,19,05,31,9.80
2010,07,19,05,32,9.80
2010,07,19,05,33,9.80
2010,07,19,05,34,9.80
2010,07,19,05,35,9.80
2010,07,19,05,36,9.80
2010,07,19,05,37,9.70
2010,07,19,05,38,9.70
2010,07,19,05,39,9.70
2010,07,19,05,40,9.70
2010,07,19,05,41,9.70
2010,07,19,05,42,9.70
2010,07,19,05,43,9.70
2010,07,19,05,44,9.70
2010,07,19,05,45,9.70
2010,07,19,05,46,9.60
2010,07,19,05,47,9.60
2010,07,19,05,48,9.60
2010,07,19,05,49,9.60
2010,07,19,05,50,9.60
2010,07,19,05,51,9.60
2010,07,19,05,52,9.60
2010,07,19,05,53,9.60
2010,07,19,05,54,9.60
2010,07,19,05,55,9.60
2010,07,19,05,56,9.60
2010,07,19,05,57,9.60
2010,07,19,05,58,9.60
2010,07,19,05,59,9.60
2010,07,19,06,00,9.60
2010,07,19,06,01,9.60
2010,07,19,06,02,9.60
2010,07,19,06,03,9.60
2010,07,19,06,04,9.60
2010,07,19,06,05,9.60
2010,07,19,06,06,9.60
2010,07,19,06,07,9.60
2010,07,19,06,08,9.60
2010,07,19,06,09,9.60
2010,07,19,06,10,9.60
2010,07,19,06,11,9.60
2010,07,19,06,12,9.60
2010,07,19,06,13,9.60
2010,07,19,06,14,9.60
2010,07,19,06,15,9.70
2010,07,19,06,16,9.70
2010,07,19,06,17,9.70
2010,07,19,06,18,9.70
2010,07,19,06,19,9.80
2010,07,19,06,20,9.80
2010,07,19,06,21,9.80
2010,07,19,06,22,9.80
2010,07,19,06,23,9.90
2010,07,19,06,24,9.90
2010,07,19,06,25,9.90
2010,07,19,06,26,10.00
2010,07,19,06,27,10.00
2010,07,19,06,28,10.10
2010,07,19,06,29,10.10
2010,07,19,06,30,10.20
2010,07,19,06,31,10.20
2010,07,19,06,32,10.20
2010,07,19,06,33,10.30
2010,07,19,06,34,10.30
2010,07,19,06,35,10.30
2010,07,19,06,36,10.40
2010,07,19,06,37,10.40
2010,07,19,06,38,10.50
2010,07,19,06,39,10.60
2010,07,19,06,40,10.70
2010,07,19,06,41,10.70
2010,07,19,06,42,10.80
2010,07,19,06,43,10.80
2010,07,19,06,44,10.90
2010,07,19,06,45,10.90
2010,07,19,06,46,11.00
2010,07,19,06,47,11.10
2010,07,19,06,48,11.10
2010,07,19,06,49,11.20
2010,07,19,06,50,11.20
2010,07,19,06,51,11.20
2010,07,19,06,52,11.30
2010,07,19,06,53,11.30
2010,07,19,06,54,11.40
2010,07,19,06,55,11.50
2010,07,19,06,56,11.50
2010,07,19,06,57,11.60
2010,07,19,06,58,11.60
2010,07,19,06,59,11.70
2010,07,19,07,00,11.70
2010,07,19,07,01,11.70
2010,07,19,07,02,11.70
2010,07,19,07,03,11.80
2010,07,19,07,04,11.80
2010,07,19,07,05,11.90
2010,07,19,07,06,11.90
2010,07,19,07,07,12.00
2010,07,19,07,08,12.00
2010,07,19,07,09,12.10
2010,07,19,07,10,12.10
2010,07,19,07,11,12.20
2010,07,19,07,12,12.30
2010,07,19,07,13,12.30
2010,07,19,07,14,12.40
2010,07,19,07,15,12.50
2010,07,19,07,16,12.50
2010,07,19,07,17,12.60
2010,07,19,07,18,12.70
2010,07,19,07,19,12.70
2010,07,19,07,20,12.80
2010,07,19,07,21,12.90
2010,07,19,07,22,12.90
2010,07,19,07,23,13.00
2010,07,19,07,24,13.00
2010,07,19,07,25,13.10
2010,07,19,07,26,13.10
2010,07,19,07,27,13.20
2010,07,19,07,28,13.20
2010,07,19,07,29,13.30
2010,07,19,07,30,13.30
2010,07,19,07,31,13.40
2010,07,19,07,32,13.50
2010,07,19,07,33,13.60
2010,07,19,07,34,13.70
2010,07,19,07,35,13.70
2010,07,19,07,36,13.80
2010,07,19,07,37,13.90
2010,07,19,07,38,13.90
2010,07,19,07,39,14.00
2010,07,19,07,40,14.10
2010,07,19,07,41,14.20
2010,07,19,07,42,14.20
2010,07,19,07,43,14.30
2010,07,19,07,44,14.30
2010,07,19,07,45,14.40
2010,07,19,07,46,14.50
2010,07,19,07,47,14.60
2010,07,19,07,48,14.60
2010,07,19,07,49,14.70
2010,07,19,07,50,14.70
2010,07,19,07,51,14.80
2010,07,19,07,52,14.80
2010,07,19,07,53,14.80
2010,07,19,07,54,14.80
2010,07,19,07,55,14.90
2010,07,19,07,56,14.90
2010,07,19,07,57,14.90
2010,07,19,07,58,14.90
2010,07,19,07,59,14.90
2010,07,19,08,00,14.90
2010,07,19,08,01,14.90
2010,07,19,08,02,14.90
2010,07,19,08,03,14.90
2010,07,19,08,04,14.90
2010,07,19,08,05,14.90
2010,07,19,08,06,14.90
2010,07,19,08,07,14.90
2010,07,19,08,08,14.90
2010,07,19,08,09,14.90
2010,07,19,08,10,15.00
2010,07,19,08,11,15.00
2010,07,19,08,12,15.00
2010,07,19,08,13,15.00
2010,07,19,08,14,15.10
2010,07,19,08,15,15.10
2010,07,19,08,16,15.10
2010,07,19,08,17,15.10
2010,07,19,08,18,15.10
2010,07,19,08,19,15.10
2010,07,19,08,20,15.10
2010,07,19,08,21,15.10
2010,07,19,08,22,15.20
2010,07,19,08,23,15.20
2010,07,19,08,24,15.20
2010,07,19,08,25,15.20
2010,07,19,08,26,15.20
2010,07,19,08,27,15.10
2010,07,19,08,28,15.10
2010,07,19,08,29,15.00
2010,07,19,08,30,15.00
2010,07,19,08,31,14.90
2010,07,19,08,32,14.90
2010,07,19,08,33,14.90
2010,07,19,08,34,14.90
2010,07,19,08,35,14.90
2010,07,19,08,36,14.90
2010,07,19,08,37,15.00
2010,07,19,08,38,15.00
2010,07,19,08,39,15.10
2010,07,19,08,40,15.00
2010,07,19,08,41,15.00
2010,07,19,08,42,15.00
2010,07,19,08,43,15.00
2010,07,19,08,44,15.10
2010,07,19,08,45,15.10
2010,07,19,08,46,15.10
2010,07,19,08,47,15.10
2010,07,19,08,48,15.10
2010,07,19,08,49,15.10
2010,07,19,08,50,15.10
2010,07,19,08,51,15.10
2010,07,19,08,52,15.10
2010,07,19,08,53,15.10
2010,07,19,08,54,15.10
2010,07,19,08,55,15.10
2010,07,19,08,56,15.00
2010,07,19,08,57,15.00
2010,07,19,08,58,15.00
2010,07,19,08,59,15.00
2010,07,19,09,00,15.00
2010,07,19,09,01,15.00
2010,07,19,09,02,15.00
2010,07,19,09,03,15.10
2010,07,19,09,04,15.10
2010,07,19,09,05,15.10
2010,07,19,09,06,15.10
2010,07,19,09,07,15.20
2010,07,19,09,08,15.10
2010,07,19,09,09,15.10
2010,07,19,09,10,15.20
2010,07,19,09,11,15.20
2010,07,19,09,12,15.20
2010,07,19,09,13,15.30
2010,07,19,09,14,15.30
2010,07,19,09,15,15.40
2010,07,19,09,16,15.50
2010,07,19,09,17,15.50
2010,07,19,09,18,15.50
2010,07,19,09,19,15.50
2010,07,19,09,20,15.40
2010,07,19,09,21,15.40
2010,07,19,09,22,15.30
2010,07,19,09,23,15.30
2010,07,19,09,24,15.30
2010,07,19,09,25,15.30
2010,07,19,09,26,15.30
2010,07,19,09,27,15.40
2010,07,19,09,28,15.30
2010,07,19,09,29,15.30
2010,07,19,09,30,15.30
2010,07,19,09,31,15.20
2010,07,19,09,32,15.20
2010,07,19,09,33,15.20
2010,07,19,09,34,15.20
2010,07,19,09,35,15.20
2010,07,19,09,36,15.20
2010,07,19,09,37,15.30
2010,07,19,09,38,15.30
2010,07,19,09,39,15.30
2010,07,19,09,40,15.30
2010,07,19,09,41,15.30
2010,07,19,09,42,15.40
2010,07,19,09,43,15.50
2010,07,19,09,44,15.50
2010,07,19,09,45,15.60
2010,07,19,09,46,15.50
2010,07,19,09,47,15.50
2010,07,19,09,48,15.50
2010,07,19,09,49,15.60
2010,07,19,09,50,15.60
2010,07,19,09,51,15.60
2010,07,19,09,52,15.60
2010,07,19,09,53,15.60
2010,07,19,09,54,15.60
2010,07,19,09,55,15.60
2010,07,19,09,56,15.50
2010,07,19,09,57,15.40
2010,07,19,09,58,15.30
2010,07,19,09,59,15.30
2010,07,19,10,00,15.30
2010,07,19,10,01,15.20
2010,07,19,10,02,15.10
2010,07,19,10,03,14.90
2010,07,19,10,04,14.80
2010,07,19,10,05,14.80
2010,07,19,10,06,14.80
2010,07,19,10,07,14.80
2010,07,19,10,08,14.80
2010,07,19,10,09,14.80
2010,07,19,10,10,14.90
2010,07,19,10,11,14.90
2010,07,19,10,12,14.90
2010,07,19,10,13,14.80
2010,07,19,10,14,14.70
2010,07,19,10,15,14.70
2010,07,19,10,16,14.60
2010,07,19,10,17,14.50
2010,07,19,10,18,14.50
2010,07,19,10,19,14.40
2010,07,19,10,20,14.40
2010,07,19,10,21,14.40
2010,07,19,10,22,14.40
2010,07,19,10,23,14.40
2010,07,19,10,24,14.30
2010,07,19,10,25,14.30
2010,07,19,10,26,14.20
2010,07,19,10,27,14.10
2010,07,19,10,28,14.10
2010,07,19,10,29,14.00
2010,07,19,10,30,14.00
2010,07,19,10,31,13.90
2010,07,19,10,32,13.80
2010,07,19,10,33,13.80
2010,07,19,10,34,13.80
2010,07,19,10,35,13.80
2010,07,19,10,36,13.80
2010,07,19,10,37,13.70
2010,07,19,10,38,13.80
2010,07,19,10,39,13.80
2010,07,19,10,40,13.90
2010,07,19,10,41,13.90
2010,07,19,10,42,13.90
2010,07,19,10,43,13.90
2010,07,19,10,44,13.90
2010,07,19,10,45,13.80
2010,07,19,10,46,13.90
2010,07,19,10,47,13.90
2010,07,19,10,48,13.90
2010,07,19,10,49,13.90
2010,07,19,10,50,13.90
2010,07,19,10,51,13.90
2010,07,19,10,52,13.90
2010,07,19,10,53,13.90
2010,07,19,10,54,13.80
2010,07,19,10,55,13.80
2010,07,19,10,56,13.80
2010,07,19,10,57,13.70
2010,07,19,10,58,13.70
2010,07,19,10,59,13.70
2010,07,19,11,00,13.80
2010,07,19,11,01,13.80
2010,07,19,11,02,13.80
2010,07,19,11,03,13.80
2010,07,19,11,04,13.80
2010,07,19,11,05,13.80
2010,07,19,11,06,13.90
2010,07,19,11,07,13.90
2010,07,19,11,08,13.90
2010,07,19,11,09,13.90
2010,07,19,11,10,13.90
2010,07,19,11,11,13.90
2010,07,19,11,12,13.90
2010,07,19,11,13,13.80
2010,07,19,11,14,13.90
2010,07,19,11,15,13.90
2010,07,19,11,16,13.90
2010,07,19,11,17,13.90
2010,07,19,11,18,13.80
2010,07,19,11,19,13.80
2010,07,19,11,20,13.80
2010,07,19,11,21,13.80
2010,07,19,11,22,13.90
2010,07,19,11,23,13.90
2010,07,19,11,24,13.90
2010,07,19,11,25,13.90
2010,07,19,11,26,13.90
2010,07,19,11,27,14.00
2010,07,19,11,28,14.10
2010,07,19,11,29,14.20
2010,07,19,11,30,14.30
2010,07,19,11,31,14.40
2010,07,19,11,32,14.40
2010,07,19,11,33,14.50
2010,07,19,11,34,14.60
2010,07,19,11,35,14.60
2010,07,19,11,36,14.60
2010,07,19,11,37,14.60
2010,07,19,11,38,14.60
2010,07,19,11,39,14.60
2010,07,19,11,40,14.50
2010,07,19,11,41,14.50
2010,07,19,11,42,14.40
2010,07,19,11,43,14.40
2010,07,19,11,44,14.40
2010,07,19,11,45,14.30
2010,07,19,11,46,14.30
2010,07,19,11,47,14.30
2010,07,19,11,48,14.20
2010,07,19,11,49,14.20
2010,07,19,11,50,14.30
2010,07,19,11,51,14.30
2010,07,19,11,52,14.30
2010,07,19,11,53,14.40
2010,07,19,11,54,14.40
2010,07,19,11,55,14.40
2010,07,19,11,56,14.40
2010,07,19,11,57,14.50
2010,07,19,11,58,14.50
2010,07,19,11,59,14.50
2010,07,19,12,00,14.50
2010,07,19,12,01,14.40
2010,07,19,12,02,14.40
2010,07,19,12,03,14.40
2010,07,19,12,04,14.40
2010,07,19,12,05,14.40
2010,07,19,12,06,14.40
2010,07,19,12,07,14.40
2010,07,19,12,08,14.40
2010,07,19,12,09,14.40
2010,07,19,12,10,14.50
2010,07,19,12,11,14.50
2010,07,19,12,12,14.60
2010,07,19,12,13,14.70
2010,07,19,12,14,14.60
2010,07,19,12,15,14.70
2010,07,19,12,16,14.70
2010,07,19,12,17,14.70
2010,07,19,12,18,14.70
2010,07,19,12,19,14.70
2010,07,19,12,20,14.70
2010,07,19,12,21,14.70
2010,07,19,12,22,14.70
2010,07,19,12,23,14.70
2010,07,19,12,24,14.80
2010,07,19,12,25,14.80
2010,07,19,12,26,14.80
2010,07,19,12,27,14.80
2010,07,19,12,28,14.90
2010,07,19,12,29,15.10
2010,07,19,12,30,15.20
2010,07,19,12,31,15.20
2010,07,19,12,32,15.30
2010,07,19,12,33,15.40
2010,07,19,12,34,15.50
2010,07,19,12,35,15.50
2010,07,19,12,36,15.50
2010,07,19,12,37,15.40
2010,07,19,12,38,15.30
2010,07,19,12,39,15.20
2010,07,19,12,40,15.20
2010,07,19,12,41,15.10
2010,07,19,12,42,15.00
2010,07,19,12,43,14.90
2010,07,19,12,44,14.90
2010,07,19,12,45,14.80
2010,07,19,12,46,14.80
2010,07,19,12,47,14.80
2010,07,19,12,48,14.80
2010,07,19,12,49,14.80
2010,07,19,12,50,14.80
2010,07,19,12,51,14.80
2010,07,19,12,52,14.80
2010,07,19,12,53,14.80
2010,07,19,12,54,14.80
2010,07,19,12,55,14.90
2010,07,19,12,56,15.10
2010,07,19,12,57,15.10
2010,07,19,12,58,15.20
2010,07,19,12,59,15.20
2010,07,19,13,00,15.20
2010,07,19,13,01,15.20
2010,07,19,13,02,15.10
2010,07,19,13,03,15.10
2010,07,19,13,04,15.00
2010,07,19,13,05,15.00
2010,07,19,13,06,14.90
2010,07,19,13,07,15.00
2010,07,19,13,08,15.10
2010,07,19,13,09,15.20
2010,07,19,13,10,15.20
2010,07,19,13,11,15.20
2010,07,19,13,12,15.20
2010,07,19,13,13,15.30
2010,07,19,13,14,15.30
2010,07,19,13,15,15.30
2010,07,19,13,16,15.30
2010,07,19,13,17,15.30
2010,07,19,13,18,15.40
2010,07,19,13,19,15.40
2010,07,19,13,20,15.40
2010,07,19,13,21,15.50
2010,07,19,13,22,15.50
2010,07,19,13,23,15.50
2010,07,19,13,24,15.40
2010,07,19,13,25,15.20
2010,07,19,13,26,15.20
2010,07,19,13,27,15.30
2010,07,19,13,28,15.30
2010,07,19,13,29,15.40
2010,07,19,13,30,15.50
2010,07,19,13,31,15.70
2010,07,19,13,32,15.80
2010,07,19,13,33,16.10
2010,07,19,13,34,16.30
2010,07,19,13,35,16.50
2010,07,19,13,36,16.60
2010,07,19,13,37,16.60
2010,07,19,13,38,16.60
2010,07,19,13,39,16.50
2010,07,19,13,40,16.50
2010,07,19,13,41,16.40
2010,07,19,13,42,16.50
2010,07,19,13,43,16.70
2010,07,19,13,44,16.80
2010,07,19,13,45,16.80
2010,07,19,13,46,16.80
2010,07,19,13,47,16.80
2010,07,19,13,48,16.80
2010,07,19,13,49,16.70
2010,07,19,13,50,16.60
2010,07,19,13,51,16.50
2010,07,19,13,52,16.50
2010,07,19,13,53,16.60
2010,07,19,13,54,16.70
2010,07,19,13,55,16.70
2010,07,19,13,56,16.70
2010,07,19,13,57,16.70
2010,07,19,13,58,16.70
2010,07,19,13,59,16.80
2010,07,19,14,00,16.90
2010,07,19,14,01,17.10
2010,07,19,14,02,17.20
2010,07,19,14,03,17.10
2010,07,19,14,04,17.10
2010,07,19,14,05,17.00
2010,07,19,14,06,17.00
2010,07,19,14,07,17.00
2010,07,19,14,08,17.00
2010,07,19,14,09,17.10
2010,07,19,14,10,17.20
2010,07,19,14,11,17.30
2010,07,19,14,12,17.50
2010,07,19,14,13,17.60
2010,07,19,14,14,17.70
2010,07,19,14,15,17.70
2010,07,19,14,16,17.80
2010,07,19,14,17,17.80
2010,07,19,14,18,17.70
2010,07,19,14,19,17.60
2010,07,19,14,20,17.50
2010,07,19,14,21,17.40
2010,07,19,14,22,17.30
2010,07,19,14,23,17.30
2010,07,19,14,24,17.30
2010,07,19,14,25,17.20
2010,07,19,14,26,17.20
2010,07,19,14,27,17.20
2010,07,19,14,28,17.30
2010,07,19,14,29,17.40
2010,07,19,14,30,17.40
2010,07,19,14,31,17.40
2010,07,19,14,32,17.30
2010,07,19,14,33,17.30
2010,07,19,14,34,17.40
2010,07,19,14,35,17.60
2010,07,19,14,36,17.80
2010,07,19,14,37,17.80
2010,07,19,14,38,17.80
2010,07,19,14,39,17.70
2010,07,19,14,40,17.70
2010,07,19,14,41,17.70
2010,07,19,14,42,17.70
2010,07,19,14,43,17.70
2010,07,19,14,44,17.80
2010,07,19,14,45,17.80
2010,07,19,14,46,17.90
2010,07,19,14,47,17.90
2010,07,19,14,48,18.00
2010,07,19,14,49,18.00
2010,07,19,14,50,18.10
2010,07,19,14,51,18.10
2010,07,19,14,52,18.00
2010,07,19,14,53,17.80
2010,07,19,14,54,17.80
2010,07,19,14,55,17.80
2010,07,19,14,56,17.90
2010,07,19,14,57,17.90
2010,07,19,14,58,17.90
2010,07,19,14,59,17.90
2010,07,19,15,00,17.90
2010,07,19,15,01,17.90
2010,07,19,15,02,17.80
2010,07,19,15,03,17.80
2010,07,19,15,04,17.80
2010,07,19,15,05,17.80
2010,07,19,15,06,17.70
2010,07,19,15,07,17.80
2010,07,19,15,08,17.90
2010,07,19,15,09,18.00
2010,07,19,15,10,18.10
2010,07,19,15,11,18.20
2010,07,19,15,12,18.40
2010,07,19,15,13,18.40
2010,07,19,15,14,18.40
2010,07,19,15,15,18.40
2010,07,19,15,16,18.30
2010,07,19,15,17,18.20
2010,07,19,15,18,18.20
2010,07,19,15,19,18.20
2010,07,19,15,20,18.20
2010,07,19,15,21,18.20
2010,07,19,15,22,18.10
2010,07,19,15,23,18.10
2010,07,19,15,24,18.20
2010,07,19,15,25,18.20
2010,07,19,15,26,18.30
2010,07,19,15,27,18.50
2010,07,19,15,28,18.50
2010,07,19,15,29,18.50
2010,07,19,15,30,18.50
2010,07,19,15,31,18.60
2010,07,19,15,32,18.50
2010,07,19,15,33,18.30
2010,07,19,15,34,18.20
2010,07,19,15,35,18.10
2010,07,19,15,36,18.00
2010,07,19,15,37,17.90
2010,07,19,15,38,17.90
2010,07,19,15,39,18.00
2010,07,19,15,40,18.00
2010,07,19,15,41,18.10
2010,07,19,15,42,18.10
2010,07,19,15,43,18.10
2010,07,19,15,44,18.10
2010,07,19,15,45,18.10
2010,07,19,15,46,18.10
2010,07,19,15,47,18.10
2010,07,19,15,48,18.20
2010,07,19,15,49,18.20
2010,07,19,15,50,18.20
2010,07,19,15,51,18.20
2010,07,19,15,52,18.20
2010,07,19,15,53,18.20
2010,07,19,15,54,18.10
2010,07,19,15,55,18.00
2010,07,19,15,56,17.90
2010,07,19,15,57,17.90
2010,07,19,15,58,17.80
2010,07,19,15,59,17.80
2010,07,19,16,00,17.80
2010,07,19,16,01,17.80
2010,07,19,16,02,17.90
2010,07,19,16,03,18.00
2010,07,19,16,04,18.00
2010,07,19,16,05,18.20
2010,07,19,16,06,18.20
2010,07,19,16,07,18.20
2010,07,19,16,08,18.30
2010,07,19,16,09,18.30
2010,07,19,16,10,18.30
2010,07,19,16,11,18.40
2010,07,19,16,12,18.60
2010,07,19,16,13,18.70
2010,07,19,16,14,18.70
2010,07,19,16,15,18.70
2010,07,19,16,16,18.60
2010,07,19,16,17,18.60
2010,07,19,16,18,18.40
2010,07,19,16,19,18.20
2010,07,19,16,20,18.00
2010,07,19,16,21,17.80
2010,07,19,16,22,17.60
2010,07,19,16,23,17.50
2010,07,19,16,24,17.50
2010,07,19,16,25,17.40
2010,07,19,16,26,17.50
2010,07,19,16,27,17.60
2010,07,19,16,28,17.70
2010,07,19,16,29,17.60
2010,07,19,16,30,17.60
2010,07,19,16,31,17.60
2010,07,19,16,32,17.60
2010,07,19,16,33,17.60
2010,07,19,16,34,17.60
2010,07,19,16,35,17.50
2010,07,19,16,36,17.40
2010,07,19,16,37,17.40
2010,07,19,16,38,17.50
2010,07,19,16,39,17.60
2010,07,19,16,40,17.60
2010,07,19,16,41,17.50
2010,07,19,16,42,17.40
2010,07,19,16,43,17.40
2010,07,19,16,44,17.30
2010,07,19,16,45,17.20
2010,07,19,16,46,17.00
2010,07,19,16,47,17.00
2010,07,19,16,48,17.10
2010,07,19,16,49,17.10
2010,07,19,16,50,17.10
2010,07,19,16,51,17.10
2010,07,19,16,52,17.20
2010,07,19,16,53,17.10
2010,07,19,16,54,17.00
2010,07,19,16,55,17.00
2010,07,19,16,56,16.90
2010,07,19,16,57,16.90
2010,07,19,16,58,16.90
2010,07,19,16,59,16.90
2010,07,19,17,00,16.80
2010,07,19,17,01,16.80
2010,07,19,17,02,16.80
2010,07,19,17,03,16.70
2010,07,19,17,04,16.70
2010,07,19,17,05,16.80
2010,07,19,17,06,16.90
2010,07,19,17,07,17.00
2010,07,19,17,08,17.00
2010,07,19,17,09,17.00
2010,07,19,17,10,17.00
2010,07,19,17,11,17.10
2010,07,19,17,12,17.00
2010,07,19,17,13,17.10
2010,07,19,17,14,17.10
2010,07,19,17,15,17.10
2010,07,19,17,16,17.10
2010,07,19,17,17,17.10
2010,07,19,17,18,17.00
2010,07,19,17,19,17.00
2010,07,19,17,20,17.00
2010,07,19,17,21,17.10
2010,07,19,17,22,17.10